Location: Andrest
(43.3200°N, 0.0641°E)
Time: 09:51:23
(UTC+00:00)

Cosmos 1680 Rocket - Pass Details

Date: 01 December 2020
Orbit: 760 x 781 km, 74.1° (Epoch: 23 January)

Event Time Altitude Azimuth Distance (km) Brightness Sun altitude
Rises 17:41:24 0° 167° (SSE) 3,227 6.8 -13.5°
Reaches altitude 10° 17:44:03 10° 156° (SSE) 2,309 5.9 -14.0°
Maximum altitude 17:48:26 27° 99° (E) 1,441 4.4 -14.8°
Enters shadow 17:50:06 23° 69° (ENE) 1,604 4.5 -15.0°
